64013000, 5301503, 2016-11-13 00:00:00, 13.35740, 109.26700,  61,   7,  12, -5.00, 1014.20, 15.00, 1,   7, 255, 0.000
64013000, 5301503, 2016-11-13 01:00:00, 13.35740, 109.26700,   0,   9,   5, -5.00, 1014.70, 15.00, 1,   7, 255, 0.000
64013000, 5301503, 2016-11-13 02:00:00, 13.35740, 109.26720,   0,  10,   7, -5.00, 1015.30, 15.00, 1,  10, 255, 0.000
64013000, 5301503, 2016-11-13 03:00:00, 13.35740, 109.26720,   0,   9,   6, -5.00, 1015.00, 15.00, 1,   8, 255, 0.000
64013000, 5301503, 2016-11-13 04:00:00, 13.35740, 109.26700,   0,   8,   2, -5.00, 1014.20, 15.00, 1,   8, 255, 0.000
64013000, 5301503, 2016-11-13 05:00:00, 13.35740, 109.26720,   0,   9,   4, -5.00, 1013.50, 15.00, 1,   7, 255, 0.000
64013000, 5301503, 2016-11-13 06:00:00, 13.35760, 109.26700,   0,  10,  10, -5.00, 1012.50, 15.00, 0,   7, 255, 0.000
64013000, 5301503, 2016-11-13 07:00:00, 13.35740, 109.26700,   0,  10,   6, -5.00, 1011.60, 15.00, 0,   8, 255, 0.000
64013000, 5301503, 2016-11-13 08:00:00, 13.35740, 109.26700,   0,   8,   2, -5.00, 1011.30, 15.00, 5,   9, 255, 0.000
64013000, 5301503, 2016-11-13 09:00:00, 13.35740, 109.26720,   0,   9,   1, -5.00, 1011.70, 15.00, 1,   4, 255, 0.000
64013000, 5301503, 2016-11-13 10:00:00, 13.35740, 109.26700,   0,   8,   1, -5.00, 1011.70, 15.00, 0,  14, 255, 0.000
64013000, 5301503, 2016-11-13 11:00:00, 13.35740, 109.26720,   0,  10,   2, -5.00, 1012.10, 15.00, 0,  23, 255, 0.000
64013000, 5301503, 2016-11-13 12:00:00, 13.35740, 109.26720,   0,   9,   1, -5.00, 1012.70, 15.00, 1,  28, 255, 0.000
64013000, 5301503, 2016-11-13 13:00:00, 13.35740, 109.26700,   0,  10,   2, -5.00, 1013.30, 15.00, 1,   1, 255, 0.000
64013000, 5301503, 2016-11-13 14:00:00, 13.35740, 109.26720,   0,   9,   2, -5.00, 1013.30, 15.00, 0,   7, 255, 0.000
64013000, 5301503, 2016-11-13 15:00:00, 13.35740, 109.26720,   0,   9,   3, -5.00, 1013.20, 15.00, 1,   8, 255, 0.000
64013000, 5301503, 2016-11-13 16:00:00, 13.35780, 109.26680,   0,  12,   1, -5.00, 1013.10, 15.00, 6,  13, 255, 0.000
64013000, 5301503, 2016-11-13 17:00:00, 13.35800, 109.26680,   0,  11,   1, -5.00, 1012.60, 15.00, 1,  10, 255, 0.000
64013000, 5301503, 2016-11-13 18:00:00, 13.35800, 109.26680,   0,  11,   1, -5.00, 1012.00, 15.00, 0,   8, 255, 0.000
64013000, 5301503, 2016-11-13 19:00:00, 13.35800, 109.26680,   0,  12,   1, -5.00, 1011.60, 15.00, 1,   7, 255, 0.000
64013000, 5301503, 2016-11-13 20:00:00, 13.35800, 109.26680,   0,  12,   1, -5.00, 1011.30, 15.00, 0,   9, 255, 0.000
64013000, 5301503, 2016-11-13 21:00:00, 13.35800, 109.26680,   0,  12,   1, -5.00, 1011.40, 15.00, 1,   7, 255, 0.000
64013000, 5301503, 2016-11-13 22:00:00, 13.35800, 109.26680,   0,  11,   1, -5.00, 1011.60, 15.00, 0,  10, 255, 0.000
64013000, 5301503, 2016-11-13 23:00:00, 13.35800, 109.26680,   0,  12,   2, -5.00, 1012.40, 15.00, 4,  11, 255, 0.000
64013000, 5301503, 2016-11-14 00:00:00, 13.35800, 109.26680,   0,  12,   1, -5.00, 1013.20, 15.00, 2,  11, 255, 0.000
64013000, 5301503, 2016-11-14 01:00:00, 13.35800, 109.26680,   0,  12,   2, -5.00, 1013.70, 15.00, 8,  10, 255, 0.000
64013000, 5301503, 2016-11-14 02:00:00, 13.35800, 109.26680,   0,  12,   3, -5.00, 1014.10, 15.00, 5,  11, 255, 0.000
64013000, 5301503, 2016-11-14 03:00:00, 13.35780, 109.26680,   0,  12,   1, -5.00, 1013.90, 15.00, 4,  11, 255, 0.000
64013000, 5301503, 2016-11-14 04:00:00, 13.35780, 109.26680,   0,  12,   1, -5.00, 1013.40, 15.00, 2,   1, 255, 0.000
64013000, 5301503, 2016-11-14 05:00:00, 13.35780, 109.26680,   0,  11,   2, -5.00, 1012.60, 15.00, 2,   9, 255, 0.000
64013000, 5301503, 2016-11-14 06:00:00, 13.35780, 109.26680,   0,  12,   1, -5.00, 1011.70, 15.00, 1,   9, 255, 0.000
64013000, 5301503, 2016-11-14 07:00:00, 13.35780, 109.26680,   0,  10,   1, -5.00, 1010.90, 15.00, 0,  20, 255, 0.000
64013000, 5301503, 2016-11-14 08:00:00, 13.35780, 109.26680,   0,  12,   1, -5.00, 1010.70, 15.00, 0,   8, 255, 0.000
64013000, 5301503, 2016-11-14 09:00:00, 13.35800, 109.26680,   0,  11,   1, -5.00, 1010.70, 15.00, 2,   9, 255, 0.000
64013000, 5301503, 2016-11-14 10:00:00, 13.35800, 109.26680,   0,  11,   5, -5.00, 1010.80, 15.00, 2,   8, 255, 0.000
64013000, 5301503, 2016-11-14 11:00:00, 13.35780, 109.26680,   0,  12,   2, -5.00, 1011.40, 15.00, 3,  11, 255, 0.000
64013000, 5301503, 2016-11-14 12:00:00, 13.35780, 109.26680,   0,  12,   1, -5.00, 1012.10, 15.00, 5,   9, 255, 0.000
64013000, 5301503, 2016-11-14 13:00:00, 13.35780, 109.26680,   0,  12,   1, -5.00, 1013.00, 15.00, 3,  19, 255, 0.000
64013000, 5301503, 2016-11-14 14:00:00, 13.35780, 109.26680,   0,  11,   3, -5.00, 1013.10, 15.00, 3,  10, 255, 0.000
64013000, 5301503, 2016-11-14 15:00:00, 13.35780, 109.26660,   0,  12,   2, -5.00, 1013.10, 15.00, 3,  20, 255, 0.000
64013000, 5301503, 2016-11-14 16:00:00, 13.35780, 109.26660,   0,  11,   1, -5.00, 1012.90, 15.00, 3,  13, 255, 0.000
64013000, 5301503, 2016-11-14 17:00:00, 13.35780, 109.26660,   0,  12,   1, -5.00, 1012.70, 15.00, 2,  10, 255, 0.000
64013000, 5301503, 2016-11-14 18:00:00, 13.35780, 109.26660,   0,  12,   1, -5.00, 1012.20, 15.00, 1,  18, 255, 0.000
64013000, 5301503, 2016-11-14 19:00:00, 13.35780, 109.26660,   0,  12,   1, -5.00, 1011.90, 15.00, 0,  15, 255, 0.000
64013000, 5301503, 2016-11-14 20:00:00, 13.35780, 109.26660,   0,  11,   1, -5.00, 1011.50, 15.00, 0,   1, 255, 0.000
64013000, 5301503, 2016-11-14 21:00:00, 13.35780, 109.26660,   0,  10,   1, -5.00, 1011.70, 15.00, 0,   9, 255, 0.000
64013000, 5301503, 2016-11-14 22:00:00, 13.35780, 109.26660,   0,  12,   1, -5.00, 1012.00, 15.00, 0,  12, 255, 0.000
64013000, 5301503, 2016-11-14 23:00:00, 13.35780, 109.26660,   0,  11,   2, -5.00, 1012.40, 15.00, 14,  11, 255, 0.000
64013000, 5301503, 2016-11-15 00:00:00, 13.35780, 109.26660,   0,   9,   2, -5.00, 1013.00, 15.00, 1,   8, 255, 0.000
64013000, 5301503, 2016-11-15 01:00:00, 13.35780, 109.26660,   0,   9,   2, -5.00, 1013.60, 15.00, 2,   5, 255, 0.000
64013000, 5301503, 2016-11-15 02:00:00, 13.35780, 109.26660,   0,   9,   2, -5.00, 1013.90, 15.00, 2,  16, 255, 0.000
64013000, 5301503, 2016-11-15 03:00:00, 13.35780, 109.26660,   0,   9,   2, -5.00, 1013.80, 15.00, 1,  12, 255, 0.000
64013000, 5301503, 2016-11-15 04:00:00, 13.35780, 109.26660,   0,   9,   1, -5.00, 1013.40, 15.00, 1,  13, 255, 0.000
64013000, 5301503, 2016-11-15 05:00:00, 13.35760, 109.26660,   0,   9,   1, -5.00, 1012.60, 15.00, 2,   1, 255, 0.000
64013000, 5301503, 2016-11-15 06:00:00, 13.35780, 109.26660,   0,   9,   1, -5.00, 1011.90, 15.00, 0,   8, 255, 0.000
64013000, 5301503, 2016-11-15 07:00:00, 13.35780, 109.26660,   0,   9,   1, -5.00, 1011.20, 15.00, 1,   1, 255, 0.000
64013000, 5301503, 2016-11-15 08:00:00, 13.35780, 109.26660,   0,   9,   1, -5.00, 1010.80, 15.00, 0,  22, 255, 0.000
64013000, 5301503, 2016-11-15 09:00:00, 13.35780, 109.26660,   0,   9,   1, -5.00, 1010.90, 15.00, 1,   4, 255, 0.000
64013000, 5301503, 2016-11-15 10:00:00, 13.35780, 109.26660,   0,  10,   1, -5.00, 1010.90, 15.00, 3,  11, 255, 0.000
64013000, 5301503, 2016-11-15 11:00:00, 13.35780, 109.26660,   0,  11,   1, -5.00, 1011.30, 15.00, 2,  10, 255, 0.000
64013000, 5301503, 2016-11-15 12:00:00, 13.35780, 109.26660,   0,  11,   1, -5.00, 1012.10, 15.00, 1,  11, 255, 0.000
64013000, 5301503, 2016-11-15 13:00:00, 13.35780, 109.26660,   0,  11,   1, -5.00, 1012.90, 15.00, 0,  10, 255, 0.000
64013000, 5301503, 2016-11-15 14:00:00, 13.35780, 109.26660,   0,  11,   1, -5.00, 1012.80, 15.00, 0,  11, 255, 0.000
64013000, 5301503, 2016-11-15 15:00:00, 13.35780, 109.26660,   0,  10,   1, -5.00, 1012.90, 15.00, 1,   8, 255, 0.000
64013000, 5301503, 2016-11-15 16:00:00, 13.35780, 109.26660,   0,  11,   1, -5.00, 1012.70, 15.00, 1,  12, 255, 0.000
64013000, 5301503, 2016-11-15 17:00:00, 13.35780, 109.26660,   0,  11,   1, -5.00, 1012.40, 15.00, 1,  11, 255, 0.000
64013000, 5301503, 2016-11-15 18:00:00, 13.35780, 109.26660,   0,  11,   1, -5.00, 1011.90, 15.00, 0,  18, 255, 0.000
64013000, 5301503, 2016-11-15 19:00:00, 13.35780, 109.26660,   0,  11,   1, -5.00, 1011.60, 15.00, 1,  10, 255, 0.000
64013000, 5301503, 2016-11-15 20:00:00, 13.35780, 109.26660,   0,  11,   1, -5.00, 1011.20, 15.00, 1,  11, 255, 0.000
64013000, 5301503, 2016-11-15 21:00:00, 13.35780, 109.26660,   0,  11,   1, -5.00, 1011.20, 15.00, 0,   9, 255, 0.000
64013000, 5301503, 2016-11-15 22:00:00, 13.35780, 109.26660,   0,  11,   1, -5.00, 1011.50, 15.00, 0,  23, 255, 0.000
64013000, 5301503, 2016-11-15 23:00:00, 13.35780, 109.26660,   0,  10,   1, -5.00, 1012.20, 15.00, 0,   9, 255, 0.000
64013000, 5301503, 2016-11-16 00:00:00, 13.35780, 109.26660,   0,  11,   2, -5.00, 1012.70, 15.00, 0,   8, 255, 0.000
64013000, 5301503, 2016-11-16 01:00:00, 13.35780, 109.26660,   0,  11,   1, -5.00, 1013.10, 15.00, 1,   9, 255, 0.000
64013000, 5301503, 2016-11-16 02:00:00, 13.35780, 109.26660,   0,  11,   1, -5.00, 1013.30, 15.00, 0,  23, 255, 0.000
64013000, 5301503, 2016-11-16 03:00:00, 13.35760, 109.26660,   0,  10,   1, -5.00, 1013.70, 15.00, 1,   9, 255, 0.000
64013000, 5301503, 2016-11-16 04:00:00, 13.35760, 109.26660,   0,  11,   1, -5.00, 1013.40, 15.00, 2,   8, 255, 0.000
64013000, 5301503, 2016-11-16 05:00:00, 13.35780, 109.26660,   0,  10,   1, -5.00, 1012.70, 15.00, 1,  10, 255, 0.000
64013000, 5301503, 2016-11-16 06:00:00, 13.35760, 109.26660,   0,  11,   1, -5.00, 1011.80, 15.00, 1,   9, 255, 0.000
64013000, 5301503, 2016-11-16 07:00:00, 13.35780, 109.26660,   0,  11,   1, -5.00, 1011.10, 15.00, 0,   8, 255, 0.000
64015370, 5301502, 2016-11-13 00:00:00, 18.73800, 113.32720,   0,  11,   2, 27.47, 1015.20, 15.00, 6,  11, 255, 0.000
64015370, 5301502, 2016-11-13 01:00:00, 18.73440, 113.32580,   0,  10,   6, 27.48, 1015.90, 15.00, 7,  10, 255, 0.000
64015370, 5301502, 2016-11-13 02:00:00, 18.73080, 113.32200,   0,  10,   5, 27.50, 1016.20, 15.00, 7,  13, 255, 0.000
64015370, 5301502, 2016-11-13 03:00:00, 18.72820, 113.31680,   0,  10,   7, 27.52, 1016.00, 15.00, 5,  25, 255, 0.000
64015370, 5301502, 2016-11-13 04:00:00, 18.72640, 113.31080,   0,  11,   5, 27.54, 1015.50, 15.00, 6,  10, 255, 0.000
64015370, 5301502, 2016-11-13 05:00:00, 18.72520, 113.30220,   0,  11,  10, 27.57, 1014.70, 15.00, 5,  15, 255, 0.000
64015370, 5301502, 2016-11-13 06:00:00, 18.72480, 113.29480,   0,  11,   7, 27.59, 1013.60, 15.00, 7,  22, 255, 0.000
64015370, 5301502, 2016-11-13 07:00:00, 18.72560, 113.28900,   0,  11,   7, 27.59, 1012.90, 15.00, 6,  12, 255, 0.000
64015370, 5301502, 2016-11-13 08:00:00, 18.72680, 113.28300,   0,  11,   7, 27.58, 1012.80, 15.00, 7,  11, 255, 0.000
64015370, 5301502, 2016-11-13 09:00:00, 18.72820, 113.27680,   0,  10,   6, 27.57, 1012.90, 15.00, 9,  10, 255, 0.000
64015370, 5301502, 2016-11-13 10:00:00, 18.72840, 113.27220,   0,  10,   5, 27.56, 1013.20, 14.80, 8,  20, 255, 0.000
64015370, 5301502, 2016-11-13 11:00:00, 18.72900, 113.26740,   0,  12,   8, 27.55, 1013.60, 15.00, 12,   9, 255, 0.000
64015370, 5301502, 2016-11-13 12:00:00, 18.73100, 113.26340,   0,  10,  11, 27.54, 1014.20, 14.80, 8,  13, 255, 0.000
64015370, 5301502, 2016-11-13 13:00:00, 18.73220, 113.25920,   0,  11,   8, 27.51, 1014.40, 14.80, 6,  17, 255, 0.000
64015370, 5301502, 2016-11-13 14:00:00, 18.73300, 113.25460,   0,  12,   7, 27.50, 1014.60, 14.80, 6,  20, 255, 0.000
64015370, 5301502, 2016-11-13 15:00:00, 18.73260, 113.25140,   0,  10,   6, 27.53, 1014.60, 14.80, 12,  11, 255, 0.000
64015370, 5301502, 2016-11-13 16:00:00, 18.73080, 113.24720,   0,  11,   7, 27.50, 1014.20, 14.80, 11,   9, 255, 0.000
64015370, 5301502, 2016-11-13 17:00:00, 18.72880, 113.24300,   0,  11,   7, 27.52, 1013.50, 14.80, 6,  10, 255, 0.000
64015370, 5301502, 2016-11-13 18:00:00, 18.72720, 113.23660,   0,  11,  10, 27.48, 1012.90, 14.80, 5,  19, 255, 0.000
64015370, 5301502, 2016-11-13 19:00:00, 18.72720, 113.22800,   0,  11,   4, 27.50, 1012.50, 14.80, 5,  14, 255, 0.000
64015370, 5301502, 2016-11-13 20:00:00, 18.72880, 113.21840,   0,  11,   5, 27.48, 1012.30, 14.80, 6,  19, 255, 0.000
64015370, 5301502, 2016-11-13 21:00:00, 18.73160, 113.20980,   0,  11,   5, 27.47, 1012.40, 14.80, 5,   8, 255, 0.000
64015370, 5301502, 2016-11-13 22:00:00, 18.73520, 113.20280,   0,  10,   8, 27.47, 1012.90, 14.80, 6,   9, 255, 0.000
64015370, 5301502, 2016-11-13 23:00:00, 18.74000, 113.19600,   0,  10,  10, 27.48, 1013.40, 14.80, 6,  12, 255, 0.000
64015370, 5301502, 2016-11-14 00:00:00, 18.74520, 113.19020,   0,  10,   8, 27.47, 1013.80, 14.80, 6,   9, 255, 0.000
64015370, 5301502, 2016-11-14 01:00:00, 18.74980, 113.18600,   0,   9,   6, 27.48, 1014.40, 14.80, 13,  11, 255, 0.000
64015370, 5301502, 2016-11-14 02:00:00, 18.75380, 113.18380,   0,  10,   4, 27.50, 1014.90, 14.80, 9,   9, 255, 0.000
64015370, 5301502, 2016-11-14 03:00:00, 18.75700, 113.18480,   0,  11,   5, 27.51, 1014.90, 14.80, 6,  14, 255, 0.000
64015370, 5301502, 2016-11-14 04:00:00, 18.75800, 113.18740,   0,  10,   8, 27.54, 1014.30, 14.80, 8,  13, 255, 0.000
64015370, 5301502, 2016-11-14 05:00:00, 18.75760, 113.19120,   0,  11,   6, 27.57, 1013.50, 14.80, 5,  10, 255, 0.000
64015370, 5301502, 2016-11-14 06:00:00, 18.75680, 113.19340,   0,  11,  11, 27.60, 1012.70, 14.80, 7,  13, 255, 0.000
64015370, 5301502, 2016-11-14 07:00:00, 18.75640, 113.19420,   0,  10,   2, 27.61, 1012.00, 14.80, 5,  15, 255, 0.000
64015370, 5301502, 2016-11-14 08:00:00, 18.75760, 113.19380,   0,  11,   6, 27.56, 1011.60, 14.80, 7,  20, 255, 0.000
64015370, 5301502, 2016-11-14 09:00:00, 18.76060, 113.19160,   0,  11,   5, 27.59, 1011.90, 14.80, 6,   8, 255, 0.000
64015370, 5301502, 2016-11-14 10:00:00, 18.76400, 113.18860,   0,  11,   5, 27.56, 1012.00, 14.80, 6,   8, 255, 0.000
64015370, 5301502, 2016-11-14 11:00:00, 18.76540, 113.18680,   0,  12,  10, 27.56, 1012.50, 14.80, 8,  10, 255, 0.000
64015370, 5301502, 2016-11-14 12:00:00, 18.76480, 113.18680,   0,  11,   6, 27.52, 1013.00, 14.80, 6,  18, 255, 0.000
64015370, 5301502, 2016-11-14 13:00:00, 18.76160, 113.18580,   0,  10,   5, 27.49, 1013.40, 14.80, 7,  14, 255, 0.000
64015370, 5301502, 2016-11-14 14:00:00, 18.75780, 113.18440,   0,  11,  10, 27.51, 1013.70, 14.80, 7,  19, 255, 0.000
64015370, 5301502, 2016-11-14 15:00:00, 18.75340, 113.18340,   0,  11,   5, 27.49, 1013.90, 14.80, 7,   9, 255, 0.000
64015370, 5301502, 2016-11-14 16:00:00, 18.74800, 113.18340,   0,  11,   7, 27.49, 1013.70, 14.80, 6,  11, 255, 0.000
64015370, 5301502, 2016-11-14 17:00:00, 18.74260, 113.18360,   0,  11,   7, 27.45, 1013.60, 14.80, 8,  16, 255, 0.000
64015370, 5301502, 2016-11-14 18:00:00, 18.74260, 113.18360,  61,  11,  12, 27.47, 1013.30, 14.80, 6,  11, 255, 0.000
64015370, 5301502, 2016-11-14 19:00:00, 18.73160, 113.17500,   0,  11,   3, 27.45, 1013.10, 14.80, 6,  15, 255, 0.000
64015370, 5301502, 2016-11-14 20:00:00, 18.72720, 113.16420,   0,  11,   5, 27.45, 1012.60, 14.80, 6,   1, 255, 0.000
64015370, 5301502, 2016-11-14 21:00:00, 18.72360, 113.15240,   0,  10,   5, 27.45, 1012.70, 14.80, 5,  14, 255, 0.000
64015370, 5301502, 2016-11-14 22:00:00, 18.72220, 113.13920,   0,  11,   6, 27.40, 1012.80, 14.80, 5,  10, 255, 0.000
64015370, 5301502, 2016-11-14 23:00:00, 18.72320, 113.12580,   0,  10,   5, 27.44, 1013.40, 14.80, 6,   8, 255, 0.000
64015370, 5301502, 2016-11-15 00:00:00, 18.72600, 113.11360,   0,  10,   8, 27.45, 1013.90, 14.80, 9,  13, 255, 0.000
64015370, 5301502, 2016-11-15 01:00:00, 18.73000, 113.10360,   0,  10,   7, 27.45, 1014.60, 14.80, 7,   9, 255, 0.000
64015370, 5301502, 2016-11-15 02:00:00, 18.73480, 113.09360,   0,  10,  11, 27.45, 1015.00, 14.80, 8,  10, 255, 0.000
64015370, 5301502, 2016-11-15 03:00:00, 18.74000, 113.08420,   0,  10,   9, 27.48, 1014.90, 14.80, 7,   9, 255, 0.000
64015370, 5301502, 2016-11-15 04:00:00, 18.74400, 113.07680,   0,  10,   7, 27.52, 1014.50, 14.80, 6,  11, 255, 0.000
64015370, 5301502, 2016-11-15 05:00:00, 18.74680, 113.07300,   0,   8,   5, 27.54, 1014.00, 14.80, 7,   9, 255, 0.000
64015370, 5301502, 2016-11-15 06:00:00, 18.75100, 113.06920,   0,  11,   8, 27.56, 1013.10, 14.80, 5,   8, 255, 0.000
64015370, 5301502, 2016-11-15 07:00:00, 18.75560, 113.06600,   0,   9,   8, 27.56, 1012.80, 14.80, 5,  10, 255, 0.000
64015370, 5301502, 2016-11-15 08:00:00, 18.75980, 113.06280,   0,  11,   7, 27.55, 1012.40, 14.80, 6,  10, 255, 0.000
64015370, 5301502, 2016-11-15 09:00:00, 18.76380, 113.06020,   0,  11,   5, 27.54, 1012.40, 14.80, 5,  23, 255, 0.000
64015370, 5301502, 2016-11-15 10:00:00, 18.76840, 113.05420,   0,  10,   5, 27.51, 1012.90, 14.80, 17,  21, 255, 0.000
64015370, 5301502, 2016-11-15 11:00:00, 18.77440, 113.04900,   0,  11,   3, 27.49, 1013.20, 14.80, 9,  13, 255, 0.000
64015370, 5301502, 2016-11-15 12:00:00, 18.78140, 113.04400,   0,  11,   6, 27.50, 1013.70, 14.80, 10,  10, 255, 0.000
64015370, 5301502, 2016-11-15 13:00:00, 18.78920, 113.03960,   0,  11,   8, 27.46, 1014.20, 14.80, 6,  10, 255, 0.000
64015370, 5301502, 2016-11-15 14:00:00, 18.79700, 113.03560,   0,  11,   9, 27.48, 1014.20, 14.80, 6,  11, 255, 0.000
64015370, 5301502, 2016-11-15 15:00:00, 18.80380, 113.03080,   0,  11,   5, 27.48, 1014.20, 14.80, 6,  10, 255, 0.000
64015370, 5301502, 2016-11-15 16:00:00, 18.80380, 113.03080,  61,  11,  12, 27.45, 1013.90, 14.80, 6,  20, 255, 0.000
64015370, 5301502, 2016-11-15 17:00:00, 18.80980, 113.02660,   0,  10,   7, 27.43, 1013.70, 14.80, 5,  16, 255, 0.000
64015370, 5301502, 2016-11-15 18:00:00, 18.80880, 113.02980,   0,  11,   8, 27.44, 1013.50, 14.80, 7,  18, 255, 0.000
64015370, 5301502, 2016-11-15 19:00:00, 18.80580, 113.03400,   0,  11,   7, 27.44, 1013.10, 14.80, 5,  11, 255, 0.000
64015370, 5301502, 2016-11-15 20:00:00, 18.80580, 113.03400,  61,  11,  12, 27.41, 1012.90, 14.80, 5,  20, 255, 0.000
64015370, 5301502, 2016-11-15 21:00:00, 18.79460, 113.03640,   0,  10,  10, 27.43, 1012.90, 14.80, 6,  22, 255, 0.000
64015370, 5301502, 2016-11-15 22:00:00, 18.79060, 113.03120,   0,  10,   8, 27.42, 1013.20, 14.80, 6,  11, 255, 0.000
64015370, 5301502, 2016-11-15 23:00:00, 18.79060, 113.03120,  60,  10,  12, 27.42, 1013.90, 14.80, 7,   9, 255, 0.000
64015370, 5301502, 2016-11-16 00:00:00, 18.78440, 113.01720,   0,  11,  10, 27.39, 1014.40, 14.80, 6,  11, 255, 0.000
64015370, 5301502, 2016-11-16 01:00:00, 18.78380, 113.00600,   0,  10,   8, 27.42, 1015.00, 14.80, 8,  11, 255, 0.000
64015370, 5301502, 2016-11-16 02:00:00, 18.78380, 113.00600,  60,  10,  12, 27.43, 1015.40, 14.80, 9,  11, 255, 0.000
64015370, 5301502, 2016-11-16 03:00:00, 18.78380, 113.00600, 120,  10,  12, 27.44, 1015.50, 14.80, 6,  14, 255, 0.000
64015370, 5301502, 2016-11-16 04:00:00, 18.78240, 112.96980,   0,  11,   7, 27.46, 1014.80, 14.80, 9,  10, 255, 0.000
64015370, 5301502, 2016-11-16 05:00:00, 18.78100, 112.95720,   0,  11,   9, 27.47, 1014.10, 14.80, 8,   9, 255, 0.000
64015370, 5301502, 2016-11-16 06:00:00, 18.78100, 112.95720,  60,  10,  12, 27.49, 1013.10, 14.80, 7,  11, 255, 0.000
64015370, 5301502, 2016-11-16 07:00:00, 18.78100, 112.95720, 120,  10,  12, 27.49, 1012.70, 14.80, 8,  10, 255, 0.000
